| time (UTC) | temp C | wind direction | speed KPH | gust KPH | rain 1hr cm | rain 24hr cm | rain mn cm | humidity % | barometer mb |
| 20260506235504 | 13 | 11 | 1.6 | 4.8 | 0.00 | 1.45 | 0.00 | 81 | 1010.9 |
| 20260506235004 | 13 | 6 | 1.6 | 4.8 | 0.00 | 1.45 | 0.00 | 81 | 1011.0 |
| 20260506233504 | 13 | 355 | 1.6 | 4.8 | 0.00 | 1.45 | 0.00 | 81 | 1011.0 |
| 20260506231004 | 13 | 355 | 1.6 | 3.2 | 0.00 | 1.45 | 0.00 | 81 | 1010.6 |
| 20260506230004 | 13 | 355 | 1.6 | 4.8 | 0.00 | 1.45 | 0.00 | 80 | 1010.4 |
| 20260506225503 | 13 | 0 | 1.6 | 4.8 | 0.00 | 1.45 | 0.00 | 80 | 1010.4 |
| 20260506225004 | 13 | 0 | 1.6 | 4.8 | 0.00 | 1.45 | 0.00 | 80 | 1010.5 |
| 20260506224503 | 13 | 0 | 1.6 | 4.8 | 0.00 | 1.45 | 0.00 | 80 | 1010.4 |
| 20260506223504 | 13 | 9 | 1.6 | 4.8 | 0.00 | 1.45 | 0.00 | 80 | 1010.5 |
| 20260506222503 | 13 | 12 | 1.6 | 3.2 | 0.00 | 1.45 | 0.00 | 80 | 1010.6 |
| 20260506215504 | 14 | 13 | 1.6 | 3.2 | 0.00 | 1.45 | 1.45 | 77 | 1010.5 |
| 20260506214504 | 14 | 13 | 1.6 | 3.2 | 0.00 | 1.45 | 1.45 | 76 | 1010.3 |
| 20260506213504 | 15 | 19 | 1.6 | 4.8 | 0.00 | 1.45 | 1.45 | 75 | 1010.4 |
| 20260506213004 | 15 | 21 | 1.6 | 4.8 | 0.00 | 1.45 | 1.45 | 75 | 1010.4 |
| 20260506212004 | 14 | 25 | 3.2 | 4.8 | 0.00 | 1.45 | 1.45 | 76 | 1010.4 |
| 20260506211503 | 14 | 18 | 1.6 | 4.8 | 0.00 | 1.45 | 1.45 | 77 | 1010.4 |
| 20260506211003 | 14 | 11 | 1.6 | 4.8 | 0.00 | 1.45 | 1.45 | 77 | 1010.3 |
| 20260506210503 | 14 | 9 | 1.6 | 4.8 | 0.00 | 1.45 | 1.45 | 78 | 1010.3 |
| 20260506210004 | 14 | 11 | 1.6 | 4.8 | 0.00 | 1.45 | 1.45 | 78 | 1010.2 |
| 20260506205504 | 14 | 18 | 1.6 | 4.8 | 0.00 | 1.45 | 1.45 | 78 | 1010.2 |
| 20260506205003 | 14 | 10 | 3.2 | 8.0 | 0.00 | 1.47 | 1.45 | 78 | 1010.3 |
| 20260506204503 | 14 | 10 | 3.2 | 4.8 | 0.00 | 1.47 | 1.45 | 77 | 1010.2 |
| 20260506204003 | 14 | 24 | 1.6 | 8.0 | 0.00 | 1.50 | 1.45 | 77 | 1010.2 |
| 20260506203504 | 14 | 8 | 3.2 | 8.0 | 0.00 | 1.52 | 1.45 | 77 | 1010.2 |
| 20260506202503 | 14 | 353 | 3.2 | 8.0 | 0.00 | 1.57 | 1.45 | 77 | 1009.9 |
| 20260506201504 | 14 | 14 | 3.2 | 9.7 | 0.00 | 1.60 | 1.45 | 77 | 1009.9 |
| 20260506201004 | 14 | 1 | 3.2 | 9.7 | 0.00 | 1.73 | 1.45 | 78 | 1009.9 |
| 20260506195504 | 13 | 354 | 4.8 | 9.7 | 0.00 | 1.75 | 1.45 | 81 | 1010.0 |
| 20260506194503 | 13 | 4 | 6.4 | 19.3 | 0.00 | 1.75 | 1.45 | 82 | 1009.9 |
| 20260506194004 | 14 | 333 | 3.2 | 9.7 | 0.00 | 1.75 | 1.45 | 82 | 1009.9 |
| 20260506193004 | 14 | 338 | 3.2 | 8.0 | 0.00 | 1.75 | 1.45 | 80 | 1009.6 |
| 20260506192004 | 15 | 319 | 1.6 | 4.8 | 0.00 | 1.75 | 1.45 | 78 | 1009.5 |
| 20260506191504 | 15 | 344 | 1.6 | 4.8 | 0.00 | 1.75 | 1.45 | 77 | 1009.4 |
| 20260506191004 | 15 | 12 | 3.2 | 4.8 | 0.00 | 1.75 | 1.45 | 76 | 1009.3 |
| 20260506190004 | 15 | 13 | 1.6 | 4.8 | 0.00 | 1.75 | 1.45 | 76 | 1009.2 |
| 20260506185003 | 15 | 3 | 1.6 | 8.0 | 0.00 | 1.75 | 1.45 | 76 | 1009.0 |
| 20260506184504 | 15 | 4 | 1.6 | 4.8 | 0.00 | 1.75 | 1.45 | 76 | 1008.9 |
| 20260506183005 | 15 | 3 | 4.8 | 8.0 | 0.00 | 1.75 | 1.45 | 75 | 1008.7 |
| 20260506182504 | 15 | 18 | 3.2 | 4.8 | 0.00 | 1.75 | 1.45 | 75 | 1008.7 |
| 20260506181503 | 15 | 17 | 1.6 | 4.8 | 0.00 | 1.75 | 1.45 | 74 | 1008.5 |
| 20260506180503 | 15 | 36 | 4.8 | 14.5 | 0.00 | 1.75 | 1.45 | 74 | 1008.3 |
| 20260506174503 | 16 | 25 | 4.8 | 19.3 | 0.00 | 1.75 | 1.45 | 74 | 1008.0 |
| 20260506173004 | 16 | 358 | 8.0 | 22.5 | 0.00 | 1.75 | 1.45 | 73 | 1007.8 |
| 20260506171504 | 17 | 8 | 9.7 | 19.3 | 0.00 | 1.75 | 1.45 | 71 | 1007.7 |
| 20260506170504 | 17 | 359 | 11.3 | 25.7 | 0.00 | 1.75 | 1.45 | 67 | 1007.4 |
| 20260506165504 | 19 | 328 | 3.2 | 14.5 | 0.00 | 1.75 | 1.45 | 63 | 1006.9 |
| 20260506165003 | 21 | 9 | 9.7 | 20.9 | 0.00 | 1.75 | 1.45 | 55 | 1006.9 |
| 20260506163504 | 21 | 167 | 8.0 | 11.3 | 0.00 | 1.75 | 1.45 | 48 | 1006.2 |
| 20260506162503 | 21 | 185 | 8.0 | 19.3 | 0.00 | 1.75 | 1.45 | 48 | 1006.1 |
| 20260506162003 | 21 | 199 | 11.3 | 25.7 | 0.00 | 1.75 | 1.45 | 48 | 1006.0 |
| 20260506161504 | 22 | 187 | 11.3 | 27.4 | 0.00 | 1.75 | 1.45 | 49 | 1006.0 |
| 20260506160504 | 21 | 137 | 8.0 | 22.5 | 0.00 | 1.75 | 1.45 | 57 | 1005.9 |
| 20260506160003 | 21 | 146 | 14.5 | 25.7 | 0.00 | 1.75 | 1.45 | 70 | 1005.9 |
| 20260506155004 | 21 | 108 | 16.1 | 33.8 | 0.00 | 1.75 | 1.45 | 71 | 1006.0 |
| 20260506154003 | 21 | 117 | 6.4 | 24.1 | 0.00 | 1.75 | 1.45 | 72 | 1006.1 |
| 20260506153504 | 21 | 122 | 9.7 | 19.3 | 0.00 | 1.75 | 1.45 | 73 | 1006.1 |
| 20260506151003 | 20 | 94 | 14.5 | 29.0 | 0.00 | 1.75 | 1.45 | 75 | 1006.3 |
| 20260506150504 | 20 | 104 | 14.5 | 27.4 | 0.00 | 1.75 | 1.45 | 76 | 1006.3 |
| 20260506150004 | 20 | 108 | 9.7 | 19.3 | 0.00 | 1.75 | 1.45 | 76 | 1006.4 |
| 20260506144504 | 20 | 114 | 11.3 | 20.9 | 0.00 | 1.75 | 1.45 | 76 | 1006.8 |
| 20260506141504 | 20 | 112 | 8.0 | 25.7 | 0.00 | 1.75 | 1.45 | 77 | 1007.0 |
| 20260506141004 | 20 | 111 | 14.5 | 27.4 | 0.00 | 1.75 | 1.45 | 77 | 1007.1 |
| 20260506140003 | 20 | 101 | 8.0 | 24.1 | 0.00 | 1.75 | 1.45 | 77 | 1007.4 |
| 20260506134504 | 19 | 113 | 9.7 | 24.1 | 0.00 | 1.75 | 1.45 | 80 | 1007.5 |
| 20260506134003 | 18 | 112 | 8.0 | 24.1 | 0.00 | 1.75 | 1.45 | 81 | 1007.6 |
| 20260506133504 | 18 | 94 | 11.3 | 22.5 | 0.00 | 1.75 | 1.45 | 80 | 1007.7 |
| 20260506132504 | 18 | 112 | 11.3 | 19.3 | 0.00 | 1.75 | 1.45 | 80 | 1007.8 |
| 20260506132003 | 18 | 111 | 9.7 | 25.7 | 0.00 | 1.75 | 1.45 | 80 | 1007.9 |
| 20260506131504 | 19 | 96 | 8.0 | 25.7 | 0.00 | 1.78 | 1.45 | 80 | 1007.9 |
| 20260506130004 | 18 | 107 | 6.4 | 24.1 | 0.00 | 1.78 | 1.45 | 81 | 1008.0 |
| 20260506125004 | 18 | 92 | 14.5 | 22.5 | 0.00 | 1.78 | 1.45 | 80 | 1008.0 |
| 20260506124504 | 18 | 75 | 11.3 | 20.9 | 0.00 | 1.78 | 1.45 | 81 | 1008.0 |
| 20260506124004 | 18 | 73 | 9.7 | 19.3 | 0.00 | 1.78 | 1.45 | 81 | 1008.0 |
| 20260506123003 | 18 | 91 | 8.0 | 19.3 | 0.00 | 1.78 | 1.45 | 81 | 1008.0 |
| 20260506122503 | 18 | 96 | 9.7 | 22.5 | 0.00 | 1.78 | 1.45 | 81 | 1008.2 |
| 20260506122004 | 18 | 103 | 12.9 | 22.5 | 0.00 | 1.78 | 1.45 | 81 | 1008.2 |
| 20260506115504 | 18 | 96 | 6.4 | 22.5 | 0.00 | 1.78 | 1.45 | 84 | 1008.3 |
| 20260506115003 | 17 | 85 | 9.7 | 22.5 | 0.00 | 1.78 | 1.45 | 85 | 1008.4 |
| 20260506114504 | 17 | 106 | 8.0 | 16.1 | 0.00 | 1.78 | 1.45 | 85 | 1008.5 |
| 20260506113004 | 17 | 105 | 11.3 | 27.4 | 0.00 | 1.78 | 1.45 | 86 | 1008.6 |
| 20260506112504 | 17 | 95 | 14.5 | 24.1 | 0.00 | 1.78 | 1.45 | 87 | 1008.6 |
| 20260506111504 | 17 | 105 | 8.0 | 22.5 | 0.00 | 1.78 | 1.45 | 88 | 1008.5 |
| 20260506105504 | 17 | 95 | 11.3 | 22.5 | 0.00 | 1.78 | 1.45 | 88 | 1008.7 |
| 20260506105004 | 16 | 93 | 11.3 | 24.1 | 0.00 | 1.78 | 1.45 | 89 | 1008.7 |
| 20260506103504 | 16 | 91 | 9.7 | 20.9 | 0.05 | 1.78 | 1.45 | 90 | 1008.7 |
| 20260506102504 | 16 | 90 | 9.7 | 22.5 | 0.18 | 1.78 | 1.45 | 90 | 1008.8 |
| 20260506101003 | 16 | 79 | 11.3 | 27.4 | 0.20 | 1.78 | 1.45 | 91 | 1008.8 |
| 20260506100504 | 15 | 105 | 9.7 | 24.1 | 0.23 | 1.78 | 1.45 | 92 | 1008.8 |
| 20260506092004 | 14 | 85 | 9.7 | 20.9 | 0.46 | 1.60 | 1.27 | 92 | 1008.9 |
| 20260506091504 | 14 | 88 | 11.3 | 16.1 | 0.48 | 1.60 | 1.27 | 92 | 1008.9 |
| 20260506090504 | 14 | 74 | 3.2 | 8.0 | 0.51 | 1.55 | 1.22 | 92 | 1009.4 |
| 20260506085504 | 14 | 76 | 1.6 | 3.2 | 0.28 | 1.35 | 0.99 | 92 | 1009.6 |
| 20260506085004 | 14 | 76 | 0.0 | 8.0 | 0.23 | 1.35 | 0.94 | 92 | 1009.5 |
| 20260506084004 | 14 | 81 | 4.8 | 14.5 | 0.15 | 1.30 | 0.86 | 92 | 1008.9 |
| 20260506083504 | 14 | 84 | 8.0 | 20.9 | 0.13 | 1.27 | 0.84 | 92 | 1008.7 |
| 20260506083004 | 14 | 83 | 9.7 | 25.7 | 0.10 | 1.24 | 0.81 | 92 | 1008.8 |
| 20260506061004 | 13 | 99 | 3.2 | 14.5 | 0.00 | 1.32 | 0.66 | 93 | 1009.6 |
| 20260506060504 | 13 | 116 | 4.8 | 16.1 | 0.00 | 1.35 | 0.66 | 93 | 1009.6 |
| 20260506051004 | 13 | 102 | 3.2 | 9.7 | 0.25 | 1.35 | 0.66 | 93 | 1009.4 |
| 20260506050504 | 13 | 93 | 3.2 | 8.0 | 0.33 | 1.35 | 0.66 | 93 | 1009.5 |
| 20260506044504 | 13 | 135 | 1.6 | 4.8 | 0.51 | 1.32 | 0.64 | 93 | 1010.1 |
| 20260506043504 | 13 | 78 | 0.0 | 0.0 | 0.56 | 1.32 | 0.64 | 93 | 1010.0 |
| 20260506043004 | 13 | 78 | 1.6 | 3.2 | 0.56 | 1.30 | 0.61 | 93 | 1009.9 |
| 20260506042003 | 13 | 81 | 1.6 | 4.8 | 0.48 | 1.19 | 0.51 | 93 | 1009.1 |
| 20260506041504 | 13 | 93 | 3.2 | 4.8 | 0.46 | 1.14 | 0.46 | 93 | 1009.4 |
| 20260506040503 | 13 | 121 | 1.6 | 3.2 | 0.33 | 1.02 | 0.33 | 93 | 1010.2 |
| 20260506035004 | 13 | 115 | 4.8 | 11.3 | 0.15 | 0.84 | 0.15 | 92 | 1010.2 |
| 20260506034504 | 13 | 115 | 0.0 | 4.8 | 0.13 | 0.81 | 0.13 | 92 | 1010.1 |
| 20260506033005 | 13 | 104 | 1.6 | 4.8 | 0.05 | 0.74 | 0.05 | 92 | 1010.1 |
| 20260506032504 | 13 | 105 | 1.6 | 4.8 | 0.03 | 0.71 | 0.03 | 92 | 1010.1 |
| 20260506032004 | 13 | 106 | 3.2 | 4.8 | 0.03 | 0.71 | 0.03 | 92 | 1010.1 |
| 20260506031504 | 13 | 103 | 3.2 | 9.7 | 0.00 | 0.69 | 0.00 | 92 | 1010.2 |
| 20260506031004 | 13 | 90 | 1.6 | 9.7 | 0.00 | 0.69 | 0.00 | 92 | 1010.1 |
| 20260506030504 | 13 | 86 | 3.2 | 4.8 | 0.00 | 0.69 | 0.00 | 92 | 1010.2 |
| 20260506025503 | 13 | 101 | 0.0 | 1.6 | 0.00 | 0.69 | 0.00 | 92 | 1010.3 |
| 20260506024003 | 13 | 107 | 3.2 | 4.8 | 0.00 | 0.69 | 0.00 | 92 | 1010.4 |
| 20260506023503 | 13 | 106 | 3.2 | 4.8 | 0.00 | 0.69 | 0.00 | 92 | 1010.5 |
| 20260506023003 | 13 | 109 | 1.6 | 4.8 | 0.00 | 0.69 | 0.00 | 92 | 1010.7 |
| 20260506021503 | 13 | 107 | 1.6 | 8.0 | 0.00 | 0.69 | 0.00 | 92 | 1010.8 |
| 20260506021003 | 13 | 113 | 3.2 | 4.8 | 0.00 | 0.69 | 0.00 | 92 | 1010.8 |
| 20260506020003 | 13 | 113 | 3.2 | 8.0 | 0.00 | 0.69 | 0.00 | 91 | 1010.8 |
| 20260506015503 | 13 | 111 | 3.2 | 11.3 | 0.00 | 0.69 | 0.00 | 91 | 1010.9 |
| 20260506013003 | 13 | 101 | 3.2 | 8.0 | 0.00 | 0.69 | 0.00 | 91 | 1010.9 |
| 20260506012503 | 13 | 98 | 4.8 | 8.0 | 0.00 | 0.69 | 0.00 | 91 | 1010.9 |
| 20260506012004 | 13 | 105 | 3.2 | 4.8 | 0.00 | 0.69 | 0.00 | 91 | 1011.0 |
| 20260506011003 | 13 | 87 | 3.2 | 4.8 | 0.00 | 0.69 | 0.00 | 91 | 1011.1 |
| 20260506010503 | 13 | 97 | 3.2 | 8.0 | 0.00 | 0.69 | 0.00 | 91 | 1011.0 |
| 20260506010003 | 13 | 73 | 1.6 | 8.0 | 0.00 | 0.69 | 0.00 | 91 | 1011.0 |
| 20260506003504 | 13 | 89 | 1.6 | 4.8 | 0.00 | 0.69 | 0.00 | 91 | 1011.2 |
| 20260506003004 | 13 | 99 | 3.2 | 4.8 | 0.00 | 0.69 | 0.00 | 91 | 1011.3 |
| 20260506002503 | 13 | 108 | 1.6 | 4.8 | 0.00 | 0.69 | 0.00 | 91 | 1011.5 |
| 20260506002003 | 14 | 104 | 1.6 | 4.8 | 0.00 | 0.69 | 0.00 | 91 | 1011.4 |
| 20260506001004 | 14 | 119 | 1.6 | 3.2 | 0.00 | 0.69 | 0.00 | 91 | 1011.6 |
| 20260506000503 | 14 | 120 | 0.0 | 3.2 | 0.00 | 0.69 | 0.00 | 91 | 1011.7 |
| 20260506000004 | 14 | 123 | 1.6 | 3.2 | 0.00 | 0.69 | 0.00 | 91 | 1011.8 |